Darlington, SC

8:51 PM EDT on October 23, 2019 (GMT -0400)
Darlington County Jetport

Weather History for KUDG - September, 2019

Change the Weather History Date:

Sunday, September 22, 2019

  Actual Average (KFLO) Record (KFLO)
Temperature  
Mean Temperature 74 °F -  
Max Temperature 87 °F 84 °F 96 °F (1980)
Min Temperature 60 °F 63 °F 47 °F (1999)
Cooling Degree Days 8    
Growing Degree Days 24 (Base 50)    
Moisture  
Dew Point 62 °F    
Average Humidity 72    
Maximum Humidity 97    
Minimum Humidity 46    
Precipitation  
Precipitation 0.00 in - - ()
Sea Level Pressure  
Sea Level Pressure 30.20 in    
Wind  
Wind Speed 3 mph ()    
Max Wind Speed 8 mph    
Max Gust Speed -    
Visibility 10.0 miles    
Events      
Averages and records for this station are not official NWS values.
T = Trace of Precipitation, MM = Missing Value Source: Averaged Metar Reports

Daily Weather History Graph

Daily Weather History Graph

Search for Another Location

Airport or City:

Astronomy

Sep. 22, 2019 Rise Set
Actual Time 7:07 AM EDT 7:16 PM EDT
Civil Twilight 6:42 AM EDT 7:41 PM EDT
Nautical Twilight 6:13 AM EDT 8:10 PM EDT
Astronomical Twilight 5:43 AM EDT 8:40 PM EDT
Moon 12:10 AM EDT (9/22) 2:54 PM EDT (9/22)
Length of Visible Light 12h 59m
Length of Day
12h 09m
Last Quarter, 44% of the Moon is Illuminated
Sep 22
Last Quarter
Sep 28
New
Oct 5
First Quarter
Oct 13
Full
Oct 21
Last Quarter

Hourly Weather History & Observations

Time (EDT) Temp. Heat Index Dew Point Humidity Pressure Visibility Wind Dir Wind Speed Gust Speed Precip Events Conditions
12:56 AM 64.9 °F - 60.1 °F 84% 30.25 in 10.0 mi SW 4.6 mph - N/A   Clear
1:56 AM 63.0 °F - 60.1 °F 90% 30.25 in 10.0 mi SW 3.5 mph - N/A   Clear
2:56 AM 63.0 °F - 60.1 °F 90% 30.24 in 10.0 mi Calm Calm - N/A   Clear
3:56 AM 61.0 °F - 60.1 °F 97% 30.22 in 10.0 mi Calm Calm - N/A   Clear
4:56 AM 61.0 °F - 59.0 °F 93% 30.23 in 10.0 mi Calm Calm - N/A   Clear
5:56 AM 60.1 °F - 59.0 °F 96% 30.23 in 10.0 mi Calm Calm - N/A   Clear
6:56 AM 60.1 °F - 59.0 °F 96% 30.24 in 10.0 mi Calm Calm - N/A   Clear
7:56 AM 61.0 °F - 59.0 °F 93% 30.25 in 10.0 mi Calm Calm - N/A   Clear
8:56 AM 68.0 °F - 64.0 °F 87% 30.26 in 10.0 mi Calm Calm - N/A   Clear
9:56 AM 73.9 °F - 64.0 °F 71% 30.27 in 10.0 mi SW 5.8 mph - N/A   Clear
10:56 AM 78.1 °F - 63.0 °F 60% 30.26 in 10.0 mi WNW 5.8 mph - N/A   Clear
11:56 AM 81.0 °F 82.2 °F 63.0 °F 54% 30.24 in 10.0 mi SW 4.6 mph - N/A   Clear
12:56 PM 82.9 °F 84.0 °F 63.0 °F 51% 30.22 in 10.0 mi Variable 4.6 mph - N/A   Clear
1:56 PM 84.0 °F 84.9 °F 63.0 °F 49% 30.18 in 10.0 mi South 5.8 mph - N/A   Clear
2:56 PM 86.0 °F 86.8 °F 63.0 °F 46% - 10.0 mi Variable 6.9 mph - N/A   Clear
3:56 PM 87.1 °F 88.3 °F 64.0 °F 46% 30.14 in 10.0 mi ESE 8.1 mph - N/A   Clear
4:56 PM 86.0 °F 86.8 °F 63.0 °F 46% 30.14 in 10.0 mi ESE 8.1 mph - N/A   Clear
5:56 PM 84.0 °F 84.5 °F 62.1 °F 47% 30.14 in 10.0 mi SE 5.8 mph - N/A   Clear
6:56 PM 79.0 °F - 63.0 °F 58% 30.13 in 10.0 mi SSE 5.8 mph - N/A   Clear
7:56 PM 73.9 °F - 62.1 °F 66% 30.14 in 10.0 mi SSE 6.9 mph - N/A   Clear
8:56 PM 72.0 °F - 61.0 °F 68% 30.15 in 10.0 mi SSE 8.1 mph - N/A   Clear
9:56 PM 70.0 °F - 62.1 °F 76% 30.16 in 10.0 mi South 6.9 mph - N/A   Clear
10:56 PM 68.0 °F - 61.0 °F 78% 30.16 in 10.0 mi South 6.9 mph - N/A   Clear
11:56 PM 66.9 °F - 60.1 °F 79% 30.15 in 10.0 mi SW 4.6 mph - N/A   Clear